Regional Weather Roundup
Issued by NWS

Home | Current Version | Previous Version | Text Only | Print | Product List | Glossary Off
Versions: 1 2 3 4 5 6 7 8 9 10 11 12 13 14 15 16 17 18 19 20 21 22 23 24 25 26 27 28 29 30 31 32 33 34 35 36 37 38 39 40 41 42 43 44 45 46 47 48 49 50

000
ASUS43 KLOT 241300
RWRIL

ILLINOIS REGIONAL WEATHER ROUNDUP
NATIONAL WEATHER SERVICE CHICAGO/ROMEOVILLE IL
800 AM CDT THU APR 24 2014

NOTE: "FAIR" INDICATES FEW OR NO CLOUDS BELOW 12,000 FEET WITH NO
SIGNIFICANT WEATHER AND/OR OBSTRUCTIONS TO VISIBILITY.

* THESE STATIONS ARE NOT UNDER NWS QUALITY CONTROL. THEY ALSO MAY NOT
  REPORT WEATHER SUCH AS PRECIPITATION OR FOG.

ILZ001-002-007-009-015-016-024-241400-
NORTHWEST ILLINOIS

CITY           SKY/WX    TMP DP  RH WIND       PRES   REMARKS
MOLINE         PTSUNNY   49  38  65 SE15      29.85F
STERLING*      CLOUDY    46  37  71 SE12      29.90S
$$

ILZ003-004-008-010-011-017-018-241400-
NORTH CENTRAL ILLINOIS

CITY           SKY/WX    TMP DP  RH WIND       PRES   REMARKS
ROCKFORD       CLOUDY    46  34  62 SE12      29.96S
$$

ILZ005-006-012>014-019>023-241400-
NORTHEAST ILLINOIS

CITY           SKY/WX    TMP DP  RH WIND       PRES   REMARKS
CHICAGO-OHARE  CLOUDY    46  34  62 E10       30.00F
CHICAGO-MIDWAY CLOUDY    47  38  71 SE10      30.01F
AURORA         CLOUDY    48  35  60 E16       29.97F
WAUKEGAN       CLOUDY    41  33  73 E8        30.01F
DUPAGE AIRPORT CLOUDY    47  35  63 SE12      29.98F
WHEELING       CLOUDY    44  35  70 E10       30.02F
NORTHERLY ISL    N/A     44  39  82 SE9         N/A
$$

LMZ740>746-241400-
SOUTHERN LAKE MICHIGAN

STATION/POSITION SKY/WX   TEMP    WIND        PRES    VSBY  WAVE
                          AIR SEA DIR/SP/G                  HT/PER
                          (F)     (DEG/KT/KT) (MB)    (MI)  (FT/S)
WAUKEGAN HARBOR            40      90/ 13/ 16 1017.9F
HARRISON CRIB              41      90/ 15/ 17   N/A
BURNHAM HARBOR             44     110/  6/  8   N/A
CALUMET HARBOR             47     110/  9/ 13 1017.2F
MICHIGAN CITY              49     100/ 12/ 17   N/A
$$

ILZ025>027-034>036-040-047-049-050-058-095>099-241400-
WEST-CENTRAL ILLINOIS

CITY           SKY/WX    TMP DP  RH WIND       PRES   REMARKS
QUINCY         MOSUNNY   55  36  48 SE16G26   29.80R
$$

ILZ028>032-037-038-041>044-048-051>054-059>061-241400-
CENTRAL ILLINOIS

CITY           SKY/WX    TMP DP  RH WIND       PRES   REMARKS
DECATUR        MOSUNNY   53  36  52 SE16      29.95F
PEORIA         PTSUNNY   54  35  48 SE16G23   29.90F
SPRINGFIELD    PTSUNNY   55  35  47 SE20      29.90F
TAYLORVILLE    NOT AVBL
$$

ILZ033-039-045-046-055>057-062-063-241400-
EAST-CENTRAL ILLINOIS

CITY           SKY/WX    TMP DP  RH WIND       PRES   REMARKS
CHAMPAIGN      PTSUNNY   52  37  56 E16       29.99F
MATTOON        MOSUNNY   54  36  50 SE15      29.98S
$$

ILZ079-100>102-241400-
SOUTHWEST ILLINOIS

CITY           SKY/WX    TMP DP  RH WIND       PRES   REMARKS
ALTON          PTSUNNY   54  37  54 SE14      29.91S
BELLEVILLE     PTSUNNY   54  40  59 SE9       29.90F
CAHOKIA*       PTSUNNY   54  37  52 SE13      29.88F
$$

ILZ064>066-069>071-074>076-080>082-084>086-088>090-092>094-241400-
SOUTH-CENTRAL ILLINOIS

CITY           SKY/WX    TMP DP  RH WIND       PRES   REMARKS
CARBONDALE     PTSUNNY   55  38  52 SE9       29.93F
MARION         PTSUNNY   55  37  50 SE12      29.95F
MT. VERNON     CLOUDY    55  34  44 E7        29.96F
$$

ILZ067-068-072-073-078-083-087-091-241400-
SOUTHEAST ILLINOIS

CITY           SKY/WX    TMP DP  RH WIND       PRES   REMARKS
$$

ABBREVIATIONS USED IN REMARKS
   TC - TEMPERATURE IN CELSIUS
  WCI - WIND CHILL INDEX
   HX - HEAT INDEX
  VSB - VISIBILITY
$$




USA.gov is the U.S. government's official web portal to all federal, state and local government web resources and services.